EHI
0 0 0 0 0 0 0 0 0 0 0 0 0 0 0 0 0 0 0 0 0 0 0 0 0 0 0 0 0 0 0 0 0 0 0 0 0 0 0 0 0 0 0
0 0 0 0 0 0 0 0 0 0 0 0 0 0 0 0 0 0 0 0 0 0 0 0 0 0 0 0 0 0 0 0 0 0 0 0 0 0 0 0 0 0 0
0 0 0 0 0 0 0 0 0 0 0 0 0 0 0 0 0 0 0 0 0 0 0 0 0 0 0 0 0 0 0 0 0 0 0 0 0 0 0 0 0 0 0
0 0 0 0 0 0 0 0 0 0 0 0 0 0 0 0 0 0 0 0 0 0 0 0 0 0 0 0 0 0 0 0 0 0 0 0 0 0 0 0 0 0 0
0 0 0 0 0 0 0 0 0 0 0 0 0 0 0 0 0 0 0 0 0 0 0 0 0 0 0 0 0 0 0 0 0 0 0 0 0 0 0 0 0 0 0
0 0 0 0 0 0 0 0 0 0 0 0 0 0 0 0 0 0 0 0 0 0 0 0 0 0 0 0 0 0 0 0 0 0 0 0 0 0 0 0 0 0 0
0 0 0 0 0 0 0 0 0 0 0 0 0 0 0 0 0 0 0 0 0 0 0 0 0 0 0 0 0 0 0 0 0 0 0 0 0 0 0 0 0 0 0
0 0 0 0 0 0 0 0 0 0 0 0 0 0 0 0 0 0 0 0 0 0 0 0 0 0 0 0 0 0 0 0 0 0 0 0 0 0 0 0 0 0 0
0 0 0 0 0 0 0 0 0 0 0 0 0 0 0 0 0 0 0 0 0 0 0 0 0 0 0 0 0 0 0 0 0 0 0 0 0 0 0 0 0 0 0
0 0 0 0 0 0 0 0 0 0 0 0 0 0 0 0 0 0 0 0 0 0 0 0 0 0 0 0 0 0 0 0 0 0 0 0 0 0 0 0 0 0 0
0 0 0 0 0 0 0 0 0 0 0 0 0 0 0 0 0 0 0 0 0 0 0 0 0 0 0 0 0 0 0 0 0 0 0 0 0 0 0 0 0 0 0
0 0 0 0 0 0 0 0 0 0 0 0 0 0 0 0 0 0 0 0 0 0 0 0 0 0 0 0 0 0 0 0 0 0 0 0 0 0 0 0 0 0 0
0 0 0 0 0 0 0 0 0 0 0 0 0 0 0 0 0 0 0 0 0 0 0 0 0 0 0 0 0 0 0 0 0 0 0 0 0 0 0 0 0 0 0
0 0 0 0 0 0 0 0 0 0 0 0 0 0 0 0 0 0 0 0 0 0 0 0 0 0 0 0 0 0 0 0 0 0 0 0 0 0 0 0 0 0 0
0 0 0 0 0 0 0 0 0 0 0 0 0 0 0 0 0 0 0 0 0 0 0 0 0 0 0 0 0 0 0 0 0 0 0 0 0 0 0 0 0 0 0
0 0 0 0 0 0 0 0 0 0 0 0 0 0 0 0 0 0 0 0 0 0 0 0 0 0 0 0 0 0 0 0 0 0 0 0 0 0 0 0 0 0 0
0 0 0 0 0 0 0 0 0 0 0 0 0 0 0 0 0 0 0 0 0 0 0 0 0 0 0 0 0 0 0 0 0 0 0 0 0 0 0 0 0 0 0
0 0 0 0 0 0 0 0 0 0 0 0 0 0 0 0 0 0 0 0 0 0 0 0 0 0 0 0 0 0 0 0 0 0 0 0 0 0 0 0 0 0 0
0 0 0 0 0 0 0 0 0 0 0 0 0 0 0 0 0 0 0 0 0 0 0 0 0 0 0 0 0 0 0 0 0 0 0 0 0 0 0 0 0 0 0
0 0 0 0 0 0 0 0 0 0 0 0 0 0 0 0 0 0 0 0 0 0 0 0 0 0 0 0 0 0 0 0 0 0 0 0 0 0 0 0 0 0 0
0 0 0 0 0 0 0 0 0 0 0 0 0 0 0 0 0 0 0 0 0 0 0 0 0 0 0 0 0 0 0 0 0 0 0 0 0 0 0 0 0 0 0
0 0 0 0 0 0 0 0 0 0 0 0 0 0 0 0 0 0 0 0 0 0 0 0 0 0 0 0 0 0 0 0 0 0 0 0 0 0 0 0 0 0 0
0 0 0 0 0 0 0 0 0 0 0 0 0 0 0 0 0 0 0 0 0 0 0 0 0 0 0 0 0 0 0 0 0 0 0 0 0 0 0 0 0 0 0
0 0 0 0 0 0 0 0 0 0 0 0 0 0 0 0 0 0 0 0 0 0 0 0 0 0 0 0 0 0 0 0 0 0 0 0 0 0 0 0 0 0 0
0 0 0 0 0 0 0 0 0 0 0 0 0 0 0 0 0 0 0 0 0 0 0 0 0 0 0 0 0 0 0 0 0 0 0 0 0 0 0 0 0 0 0
0 0 0 0 0 0 0 0 0 0 0 0 0 0 0 0 0 0 0 0 0 0 0 0 0 0 0 0 0 0 0 0 0 0 0 0 0 0 0 0 0 0 0
Wind_Speed
1 1 1 1 1 1 1 1 1 1 2 2 3 3 3 2 2 2 3 3 3 3 3 3 3 3 2 2 2 3 3 3 5 4 2 2 3 3 3 3 3 4 4
1 1 1 1 1 1 1 1 1 2 2 2 2 3 3 3 3 3 3 4 4 4 4 4 4 3 3 3 3 4 4 4 4 6 3 3 4 3 3 4 4 4 4
1 1 1 1 1 1 1 1 2 2 2 2 2 3 3 3 3 3 4 4 4 4 4 4 4 4 4 4 4 4 4 4 4 5 4 3 3 3 3 4 4 3 4
1 1 2 2 2 2 1 1 2 2 2 2 2 3 3 3 4 4 4 4 4 4 4 4 4 5 5 5 5 5 4 4 4 4 4 3 3 3 3 3 3 3 4
2 2 2 2 1 1 1 1 2 2 2 2 2 3 3 3 4 4 4 4 3 3 3 4 5 6 8 6 5 5 4 4 4 4 5 4 4 4 4 3 4 3 4
2 2 2 1 1 1 1 1 2 1 2 2 2 3 3 3 6 7 5 3 3 4 4 4 5 6 8 9 10 9 8 6 6 6 6 6 6 5 4 4 3 3 4
1 1 1 1 2 1 1 1 2 2 2 2 2 2 3 4 7 7 7 3 3 4 4 4 4 5 7 5 8 10 10 12 11 8 7 7 6 6 5 5 5 5 5
1 1 1 1 2 1 1 2 2 2 2 2 3 3 3 4 7 8 7 4 3 4 5 5 5 5 6 6 6 6 6 7 8 7 7 7 6 5 6 6 6 4 3
1 1 1 2 2 2 2 2 2 2 2 3 3 3 3 4 7 7 6 3 3 4 5 5 5 5 9 11 7 6 7 7 9 11 12 10 11 11 9 4 4 4 5
1 2 2 2 2 2 2 2 2 2 2 3 3 3 3 4 6 7 6 2 3 3 4 5 8 8 10 11 7 6 7 6 5 6 7 8 7 8 11 7 6 5 4
2 2 2 2 2 2 2 2 2 2 2 2 3 3 3 4 5 6 6 2 2 3 3 3 5 9 10 10 9 6 9 7 5 5 5 5 4 5 5 5 5 5 5
2 2 2 2 2 2 1 1 1 2 2 2 2 3 2 3 5 6 7 6 5 3 3 3 5 9 10 11 8 9 11 8 3 4 4 4 4 4 5 5 6 6 5
2 2 2 2 2 2 1 1 1 1 2 2 2 2 3 3 4 7 7 7 7 4 3 7 9 10 9 7 8 10 8 4 3 4 5 5 4 4 3 3 3 4 4
1 2 2 2 2 2 2 2 1 1 2 2 2 3 3 3 3 3 3 4 6 5 4 6 9 9 7 6 6 5 3 3 4 4 4 4 3 3 3 3 3 3 3
1 2 2 2 2 2 2 2 2 2 3 3 3 3 3 3 5 7 5 3 3 4 4 3 3 3 3 2 2 2 2 3 3 3 3 3 4 4 4 3 3 3 4
2 2 2 2 2 2 2 3 4 5 6 8 7 6 5 7 9 9 9 8 7 6 4 2 3 3 3 3 3 3 3 3 3 3 3 3 4 4 4 3 3 4 4
1 2 2 2 2 2 2 2 3 4 6 7 8 8 8 9 9 9 10 9 7 5 2 2 3 3 3 3 3 3 3 3 3 3 3 3 3 4 3 3 4 4 4
2 3 3 2 2 2 2 3 3 3 4 3 5 8 9 9 9 9 9 7 4 3 2 3 3 3 3 3 3 3 3 3 3 3 3 3 3 4 4 4 4 4 4
2 2 2 2 2 2 2 3 3 3 3 4 4 5 8 9 9 9 7 3 3 3 3 3 3 3 3 3 3 3 3 3 4 3 3 3 3 4 4 4 4 6 4
2 4 4 2 2 2 2 3 3 3 3 3 4 4 4 5 4 4 4 3 3 3 3 3 3 3 3 3 3 3 3 3 4 3 3 3 3 3 4 4 3 4 4
2 3 5 3 2 2 2 3 3 3 3 4 4 5 8 4 3 4 4 3 3 3 3 3 3 3 3 3 3 3 4 4 4 4 3 3 3 3 3 3 3 3 3
2 2 2 2 2 3 3 3 3 3 4 4 4 5 9 5 3 3 4 4 3 3 3 3 3 3 3 3 3 4 4 4 4 4 3 3 3 3 3 3 3 3 3
2 3 3 3 3 5 4 3 3 3 3 4 4 4 4 4 4 4 4 4 3 3 3 3 3 4 4 4 3 4 4 5 4 4 4 4 4 4 3 4 4 4 4
2 3 3 3 3 3 3 3 3 3 4 4 4 4 4 4 4 5 4 4 4 4 3 3 4 5 6 5 4 4 4 5 5 5 5 5 5 4 4 4 4 5 4
2 3 3 3 3 3 3 3 3 3 4 4 4 4 4 4 4 4 4 4 5 5 5 5 4 5 7 8 8 7 9 11 9 6 5 5 5 5 5 5 4 4 4
2 3 3 3 3 3 3 3 4 4 4 4 4 4 4 4 5 5 4 4 4 5 5 5 6 7 8 7 9 11 13 12 12 11 5 4 5 5 5 5 5 5 5
Wind_Direction
198 202 186 192 196 183 196 230 252 225 193 201 203 209 210 210 214 216 222 219 224 233 233 227 235 237 244 243 233 236 242 240 260 274 268 245 239 250 267 272 272 265 255
197 197 193 195 191 185 206 235 252 255 219 210 210 213 217 216 215 217 225 223 221 226 230 227 235 236 239 244 237 241 244 239 244 264 261 240 240 238 249 260 269 267 262
193 196 198 200 198 206 219 240 247 258 248 230 219 219 223 224 225 226 227 225 225 225 226 227 232 231 238 240 240 246 248 246 238 245 252 246 244 236 244 257 265 267 263
194 208 220 220 215 217 224 234 244 255 250 240 236 230 229 233 233 231 233 231 228 231 233 232 233 232 232 232 235 239 242 239 234 242 244 245 244 234 226 240 261 258 263
200 217 235 237 226 220 224 235 241 255 261 257 253 242 237 235 235 231 230 231 232 238 243 244 242 247 248 245 242 234 232 235 231 237 240 240 238 227 229 230 248 261 262
213 229 243 245 240 228 228 238 245 254 259 254 257 247 240 250 258 258 254 233 232 237 246 249 251 252 253 254 255 252 243 235 230 234 241 233 236 233 234 232 244 253 266
235 245 254 255 258 252 248 247 252 248 246 241 246 251 250 256 262 263 261 252 230 233 239 243 252 255 259 254 254 258 257 255 246 238 241 238 236 230 226 235 237 242 255
246 273 289 281 275 269 247 247 255 254 242 243 243 249 257 270 273 266 264 255 239 239 239 237 241 247 253 256 251 251 253 254 252 250 244 242 237 230 226 232 237 250 266
273 299 307 299 287 278 268 262 253 252 254 251 245 245 253 269 278 278 275 245 245 246 249 248 249 246 254 260 258 252 256 261 262 261 258 256 249 245 243 233 226 237 259
310 307 301 291 275 273 266 262 250 252 258 265 268 259 254 259 276 288 288 254 256 257 252 253 255 259 259 261 256 248 250 255 259 265 262 255 247 242 245 231 216 225 250
327 326 312 299 283 275 266 254 245 261 265 265 275 274 264 266 278 284 290 281 259 260 261 262 263 268 269 266 265 254 258 262 253 252 255 250 241 232 232 229 222 222 232
340 329 322 322 312 305 288 260 243 242 252 261 270 282 281 277 283 282 287 290 288 262 262 269 272 274 276 274 271 269 271 269 252 247 248 249 242 238 236 229 227 229 232
342 332 329 329 322 314 291 263 249 232 243 266 271 284 293 295 285 289 290 294 293 287 272 282 287 283 282 277 277 279 273 259 249 248 248 251 249 241 238 233 231 234 240
344 328 324 326 321 320 309 294 276 253 250 268 275 281 291 293 291 290 285 285 290 290 283 279 283 284 287 291 289 287 281 262 256 252 256 258 255 243 235 229 234 231 242
330 315 314 315 316 314 306 287 278 256 255 261 256 261 274 282 289 298 303 292 289 286 300 288 279 279 280 292 294 293 293 295 279 272 270 271 263 254 248 233 227 229 235
311 310 306 307 308 310 310 312 301 292 291 287 285 285 282 284 293 297 299 300 298 296 296 288 289 287 282 283 284 286 288 288 287 282 269 265 268 260 254 245 234 228 235
293 300 303 308 309 308 307 307 307 310 301 296 295 294 291 292 294 298 302 304 302 301 289 281 277 278 281 285 287 286 287 289 286 279 272 266 268 265 256 247 239 238 240
292 292 297 295 298 299 298 296 296 297 303 306 304 302 303 302 300 300 301 306 300 297 282 273 274 277 279 283 286 289 291 293 290 285 280 272 265 264 255 247 241 237 238
296 293 294 296 295 293 294 296 298 298 296 300 305 308 311 312 311 307 307 295 286 286 289 286 281 282 283 283 286 286 285 285 288 284 277 275 272 265 258 251 245 248 244
291 295 301 298 294 295 294 293 295 295 297 298 301 307 311 312 312 312 311 300 284 281 282 283 288 286 280 278 279 280 280 281 284 282 279 277 274 268 261 260 250 243 240
291 296 302 307 297 293 291 291 292 293 294 296 296 295 302 303 298 298 298 295 289 288 288 285 282 284 281 278 276 276 276 277 279 278 277 276 277 275 267 259 253 248 249
289 290 294 294 294 292 289 285 288 291 293 295 298 303 307 310 300 293 290 290 287 284 284 286 286 282 279 276 274 274 273 273 274 275 274 273 272 275 273 265 259 253 246
283 287 289 290 288 292 301 300 293 290 292 295 297 300 303 302 296 290 287 288 288 288 286 280 280 283 284 280 270 263 263 264 263 260 259 259 258 260 263 262 252 246 247
271 276 282 288 288 285 289 293 293 293 292 292 294 295 295 294 294 293 291 289 287 283 278 273 270 274 280 284 280 273 269 266 257 248 243 246 250 254 252 252 250 246 241
276 279 280 281 283 285 287 288 288 290 293 293 293 295 296 295 293 293 291 289 286 283 282 280 275 275 276 277 277 276 279 278 271 258 235 235 243 245 248 247 246 246 243
276 278 280 282 281 282 285 289 290 291 290 291 292 290 291 291 290 290 290 289 289 286 284 282 278 278 278 277 278 281 283 277 274 273 257 233 234 242 242 242 242 240 241